Total_Precipitation_Accumulation
0.03 0.01 0.02 0.02 0.05 0.07 0.07 0.07 0.10 0.10 0.08 0.09 0.12 0.15 0.14 0.10 0.08 0.07 0.07 0.08 0.11 0.15 0.16 0.16 0.18 0.21 0.20 0.17 0.12 0.08 0.06 0.06 0.05 0.05 0.08 0.11 0.15 0.14 0.12 0.11 0.17 0.23 0.10
0.04 0.01 0.02 0.02 0.04 0.06 0.07 0.07 0.08 0.08 0.07 0.08 0.10 0.11 0.11 0.10 0.09 0.08 0.07 0.08 0.11 0.14 0.15 0.14 0.14 0.17 0.16 0.10 0.07 0.05 0.04 0.05 0.09 0.13 0.16 0.19 0.23 0.19 0.16 0.13 0.23 0.39 0.19
0.03 0.01 0.01 0.02 0.03 0.05 0.06 0.07 0.07 0.07 0.07 0.08 0.09 0.09 0.10 0.09 0.09 0.08 0.09 0.11 0.16 0.20 0.19 0.17 0.16 0.17 0.14 0.09 0.05 0.04 0.04 0.08 0.15 0.24 0.43 0.46 0.46 0.31 0.23 0.15 0.15 0.18 0.21
0.03 0.01 0.01 0.02 0.03 0.04 0.04 0.06 0.08 0.08 0.07 0.07 0.08 0.08 0.09 0.08 0.08 0.08 0.09 0.12 0.18 0.22 0.22 0.20 0.18 0.16 0.13 0.07 0.05 0.04 0.05 0.10 0.21 0.39 0.76 0.71 0.62 0.45 0.32 0.24 0.21 0.20 0.24
0.03 0.00 0.01 0.02 0.03 0.04 0.04 0.05 0.08 0.09 0.08 0.08 0.08 0.08 0.09 0.09 0.08 0.09 0.10 0.11 0.13 0.17 0.17 0.12 0.11 0.11 0.10 0.06 0.05 0.05 0.08 0.15 0.30 0.58 0.96 1.08 0.97 0.61 0.36 0.29 0.30 0.31 0.33
0.03 0.01 0.01 0.02 0.04 0.05 0.06 0.07 0.08 0.08 0.09 0.09 0.10 0.12 0.12 0.12 0.10 0.12 0.15 0.15 0.14 0.14 0.13 0.10 0.09 0.08 0.09 0.05 0.04 0.07 0.12 0.22 0.35 0.73 1.08 1.15 0.84 0.58 0.41 0.38 0.38 0.39 0.38
0.06 0.03 0.01 0.03 0.05 0.08 0.09 0.11 0.13 0.13 0.13 0.14 0.16 0.17 0.16 0.14 0.15 0.15 0.16 0.17 0.16 0.16 0.13 0.12 0.13 0.12 0.08 0.04 0.04 0.07 0.14 0.24 0.42 1.06 1.18 1.13 0.90 0.63 0.48 0.41 0.38 0.36 0.35
0.08 0.05 0.02 0.03 0.06 0.11 0.14 0.17 0.19 0.16 0.14 0.15 0.17 0.20 0.16 0.13 0.12 0.11 0.12 0.13 0.15 0.17 0.17 0.12 0.07 0.06 0.03 0.03 0.03 0.07 0.13 0.18 0.33 0.75 1.04 0.89 0.66 0.51 0.44 0.35 0.31 0.28 0.27
0.10 0.07 0.04 0.03 0.05 0.13 0.20 0.19 0.17 0.15 0.14 0.16 0.19 0.21 0.18 0.13 0.09 0.09 0.11 0.13 0.13 0.14 0.11 0.05 0.02 0.02 0.01 0.01 0.02 0.05 0.10 0.15 0.26 0.49 0.65 0.65 0.51 0.39 0.37 0.33 0.26 0.22 0.22
0.20 0.11 0.07 0.08 0.10 0.13 0.15 0.15 0.15 0.14 0.15 0.16 0.17 0.16 0.13 0.09 0.08 0.08 0.08 0.08 0.09 0.10 0.10 0.06 0.03 0.02 0.02 0.02 0.02 0.04 0.07 0.10 0.19 0.36 0.70 0.75 0.49 0.42 0.41 0.34 0.27 0.24 0.20
0.20 0.17 0.14 0.12 0.13 0.14 0.11 0.08 0.09 0.10 0.11 0.09 0.08 0.09 0.08 0.09 0.14 0.14 0.09 0.08 0.11 0.13 0.10 0.06 0.04 0.03 0.02 0.02 0.03 0.05 0.05 0.07 0.22 0.47 0.84 0.80 0.51 0.47 0.42 0.37 0.31 0.28 0.25
0.21 0.19 0.19 0.16 0.14 0.15 0.14 0.13 0.12 0.08 0.08 0.06 0.08 0.05 0.08 0.26 0.34 0.25 0.22 0.16 0.15 0.12 0.08 0.06 0.06 0.04 0.04 0.04 0.04 0.04 0.05 0.09 0.26 0.56 0.73 0.46 0.49 0.55 0.50 0.45 0.39 0.35 0.32
0.30 0.22 0.23 0.22 0.20 0.29 0.31 0.24 0.25 0.19 0.18 0.12 0.20 0.19 0.27 0.36 0.30 0.27 0.28 0.20 0.15 0.12 0.11 0.13 0.09 0.07 0.07 0.09 0.10 0.09 0.11 0.16 0.22 0.39 0.54 0.41 0.49 0.64 0.66 0.58 0.47 0.42 0.40
0.43 0.41 0.37 0.30 0.27 0.36 0.45 0.35 0.36 0.32 0.28 0.25 0.34 0.24 0.34 0.45 0.49 0.50 0.56 0.41 0.34 0.29 0.27 0.22 0.19 0.14 0.14 0.14 0.16 0.16 0.18 0.21 0.28 0.40 0.47 0.38 0.42 0.61 0.76 0.72 0.63 0.55 0.54
0.56 0.58 0.56 0.43 0.42 0.46 0.56 0.55 0.51 0.47 0.46 0.49 0.58 0.47 0.47 0.47 0.56 0.72 0.73 0.79 0.57 0.53 0.47 0.41 0.36 0.35 0.30 0.24 0.23 0.23 0.27 0.32 0.38 0.42 0.43 0.41 0.42 0.58 0.82 0.90 0.81 0.75 0.72
0.87 0.85 0.80 0.72 0.65 0.59 0.55 0.60 0.59 0.53 0.58 0.63 0.73 0.68 0.63 0.64 0.78 0.99 1.03 1.00 0.79 0.75 0.79 0.77 0.71 0.58 0.48 0.47 0.42 0.38 0.41 0.51 0.56 0.55 0.59 0.55 0.48 0.57 0.79 0.93 0.96 0.96 0.91
0.92 1.13 1.19 1.09 0.89 0.76 0.66 0.66 0.77 0.74 0.75 0.74 0.87 0.90 0.83 0.88 1.12 1.14 1.32 1.26 1.09 1.04 1.01 0.92 0.95 0.92 0.79 0.71 0.63 0.56 0.62 0.69 0.70 0.74 0.79 0.82 0.71 0.66 0.74 0.85 0.92 0.95 0.96
1.06 1.14 1.21 1.05 0.88 0.90 0.92 0.96 0.98 1.12 1.24 1.20 1.22 1.40 1.42 1.40 1.51 1.47 1.47 1.45 1.35 1.34 1.45 1.46 1.29 1.21 1.17 1.05 0.95 0.87 0.82 0.86 0.82 0.82 0.79 0.85 0.94 0.81 0.70 0.70 0.72 0.78 0.89
0.96 1.14 1.22 1.12 0.99 0.99 1.16 1.41 1.43 1.47 1.73 1.83 1.74 1.95 2.03 1.93 1.95 1.98 1.97 1.98 1.84 1.86 1.80 1.66 1.64 1.50 1.47 1.32 1.08 0.99 0.91 0.93 0.84 0.75 0.71 0.75 0.83 0.79 0.71 0.62 0.63 0.70 0.80
1.01 1.13 1.27 1.34 1.36 1.36 1.41 1.60 1.84 1.97 2.10 2.40 2.44 2.43 2.49 2.58 2.62 2.64 2.60 2.54 2.42 2.27 2.10 1.98 1.90 1.69 1.52 1.34 1.06 0.92 0.85 0.76 0.72 0.70 0.65 0.64 0.65 0.60 0.61 0.61 0.58 0.55 0.60
1.29 1.44 1.49 1.58 1.71 1.86 2.06 2.07 2.19 2.41 2.74 3.04 3.26 3.33 3.31 3.24 3.20 3.02 2.90 2.84 2.65 2.43 2.22 2.08 1.89 1.73 1.53 1.34 1.27 1.08 0.82 0.66 0.60 0.55 0.51 0.50 0.49 0.49 0.54 0.56 0.53 0.48 0.45
1.58 1.69 1.80 1.89 2.19 2.59 2.95 3.35 3.66 3.80 3.82 4.03 4.14 4.13 4.00 3.86 3.69 3.45 3.35 3.17 2.89 2.67 2.39 2.11 1.88 1.76 1.59 1.42 1.41 1.36 1.10 0.83 0.60 0.45 0.42 0.38 0.35 0.33 0.34 0.35 0.35 0.36 0.35
1.64 1.83 1.96 2.22 2.83 3.59 3.90 4.19 4.74 4.99 4.73 4.51 4.40 4.32 4.24 4.22 4.14 3.89 3.73 3.42 3.10 2.78 2.47 2.16 1.89 1.74 1.62 1.48 1.35 1.39 1.26 1.02 0.71 0.50 0.37 0.30 0.26 0.26 0.26 0.25 0.27 0.28 0.28
1.86 1.93 2.10 2.59 3.33 3.97 4.41 4.92 5.41 5.60 5.57 5.44 5.00 4.52 4.08 3.75 3.57 3.44 3.30 3.09 2.81 2.49 2.23 2.00 1.74 1.56 1.55 1.41 1.23 1.07 0.97 0.84 0.72 0.57 0.40 0.31 0.26 0.24 0.22 0.20 0.21 0.23 0.25
1.61 1.98 2.24 2.78 3.45 4.11 4.78 5.40 5.76 5.95 5.88 5.48 4.72 3.97 3.55 3.27 2.99 2.77 2.61 2.44 2.24 2.02 1.82 1.67 1.54 1.40 1.30 1.18 1.03 0.92 0.84 0.72 0.60 0.54 0.48 0.37 0.33 0.29 0.24 0.21 0.20 0.20 0.21
1.51 1.80 2.22 2.53 3.15 3.81 4.37 4.86 5.00 5.12 5.04 4.62 4.16 3.65 3.27 2.85 2.38 2.03 1.82 1.66 1.52 1.38 1.31 1.26 1.19 1.12 1.04 0.96 0.87 0.77 0.70 0.67 0.60 0.54 0.48 0.40 0.37 0.34 0.28 0.24 0.21 0.20 0.19